Skip Page Navigation
NASA JPL Caltech
NASA Logo - Jet Propulsion Laboratory + View the NASA Portal
+ Center for Near-Earth Object Studies
JPL Home Earth Solar System Stars & Galaxies Technology
JPL Solar System Dynamics
BODIES ORBITS EPHEMERIDES TOOLS PHYSICAL DATA DISCOVERY FAQ SITE MAP
JPL Small-Body Database Browser
Search: [ help ]  
34078 (2000 PF)
Classification: Main-belt Asteroid          SPK-ID: 2034078
Ephemeris | Orbit Diagram | Orbital Elements | Mission Design | Physical Parameters | Discovery Circumstances ]

[ show orbit diagram ]
Orbital Elements at Epoch 2459000.5 (2020-May-31.0) TDB
Reference: JPL 20 (heliocentric ecliptic J2000)
 Element Value Uncertainty (1-sigma)   Units 
e .2141749078588699 5.5176e-08  
a 2.581879722086479 1.4637e-08 au
q 2.028905870505923 1.4852e-07 au
i 13.88268440886471 5.4893e-06 deg
node 294.7168576548134 1.9155e-05 deg
peri 33.29020098372624 2.251e-05 deg
M 293.8133144599763 1.7018e-05 deg
tp 2459279.093236883928
(2021-Mar-05.59323688)
7.3341e-05 TDB
period 1515.313305990609
4.15
1.2886e-05
3.528e-08
d
yr
n .2375746313166942 2.0203e-09 deg/d
Q 3.134853573667036 1.7772e-08 au
  Orbit Determination Parameters
   # obs. used (total)      919  
   data-arc span      11520 days (31.54 yr)  
   first obs. used      1988-12-02  
   last obs. used      2020-06-17  
   planetary ephem.      DE431  
   SB-pert. ephem.      SB431-N16  
   condition code      0  
   norm. resid. RMS      .50687  
   source      ORB  
   producer      Otto Matic  
   solution date      2020-Jun-23 20:19:01  

Additional Information
 Earth MOID = 1.03007 au 
 Jupiter MOID = 2.22989 au 
 T_jup = 3.351 
[ show covariance matrix ]

Ephemeris | Orbit Diagram | Orbital Elements | Mission Design | Physical Parameters | Discovery Circumstances ]

Physical Parameter Table
Parameter Symbol Value Units Sigma Reference Notes
absolute magnitude H 14.1   n/a MPO324619  
diameter diameter 6.574 km 0.184 urn:nasa:pds:neowise_diameters_albedos::2.0[mainbelt] (http://adsabs.harvard.edu/abs/2011ApJ...741...68M)  
geometric albedo albedo 0.094   0.012 urn:nasa:pds:neowise_diameters_albedos::2.0[mainbelt] (http://adsabs.harvard.edu/abs/2011ApJ...741...68M)  

34078 (2000 PF)          Discovered 2000-Aug-01 by Crni Vrh at Crni Vrh
Reference: 20020128/Numbers.arcLast Updated: 2004-04-19
Ephemeris | Orbit Diagram | Orbital Elements | Mission Design | Physical Parameters | Discovery Circumstances ]
ABOUT SSD CREDITS/AWARDS PRIVACY/COPYRIGHT GLOSSARY LINKS
FirstGov 2020-Jul-06 00:22 UT
(server date/time)  
NASA Home Page
Site Manager:   Ryan S. Park
Webmaster  Alan B. Chamberlin